SAS956 ESMS-ESGG

Flight info

Callsign SAS956
Flight time 0h 35m
Altitude 26000
Route ERNOV N15 LASLI L997 RISMA
Aircraft A320/M-SDE3FGHIRWY/LB1

Departure

Time 2026-04-26 15:15
Airport Malmö Sturup Airport (ESMS)

Arrival

Time 2026-04-26 15:50
Airport Göteborg Landvetter Airport (ESGG)
Time Latitude Longitude Altitude Speed Heading
2026-04-26 15:01 55.54008 13.36786 236 ft 0 kts 353°
2026-04-26 15:05 55.53980 13.36792 239 ft 3 kts 353°
2026-04-26 15:05 55.53958 13.36799 242 ft 3 kts
2026-04-26 15:06 55.53939 13.36783 240 ft 3 kts 62°
2026-04-26 15:06 55.53934 13.36764 242 ft 0 kts 83°
2026-04-26 15:08 55.53934 13.36765 242 ft 0 kts 83°
2026-04-26 15:09 55.53936 13.36784 240 ft 3 kts 82°
2026-04-26 15:10 55.53942 13.36843 237 ft 6 kts 82°
2026-04-26 15:10 55.53946 13.36904 239 ft 8 kts 83°
2026-04-26 15:10 55.53957 13.37075 236 ft 13 kts 83°
2026-04-26 15:10 55.53963 13.37202 236 ft 10 kts 96°
2026-04-26 15:11 55.53906 13.37269 238 ft 12 kts 173°
2026-04-26 15:11 55.53813 13.37287 236 ft 15 kts 174°
2026-04-26 15:11 55.53698 13.37311 240 ft 18 kts 173°
2026-04-26 15:11 55.53563 13.37338 235 ft 21 kts 173°
2026-04-26 15:12 55.53406 13.37372 237 ft 24 kts 173°
2026-04-26 15:12 55.53227 13.37408 239 ft 28 kts 173°
2026-04-26 15:12 55.53025 13.37450 235 ft 31 kts 173°
2026-04-26 15:12 55.52806 13.37498 236 ft 30 kts 173°
2026-04-26 15:13 55.52617 13.37533 236 ft 27 kts 170°
2026-04-26 15:13 55.52464 13.37584 236 ft 18 kts 158°
2026-04-26 15:13 55.52356 13.37703 234 ft 18 kts 143°
2026-04-26 15:13 55.52315 13.37810 233 ft 8 kts 98°
2026-04-26 15:14 55.52359 13.37879 234 ft 10 kts
2026-04-26 15:14 55.52483 13.37854 237 ft 42 kts 353°
2026-04-26 15:14 55.53020 13.37744 237 ft 109 kts 353°
2026-04-26 15:14 55.53927 13.37539 383 ft 145 kts 352°
2026-04-26 15:15 55.54990 13.37358 921 ft 157 kts 352°
2026-04-26 15:15 55.56080 13.37127 1631 ft 161 kts 350°
2026-04-26 15:15 55.57245 13.36822 2095 ft 177 kts 349°
2026-04-26 15:15 55.58545 13.36488 2493 ft 201 kts 348°
2026-04-26 15:16 55.59985 13.35859 3009 ft 224 kts 340°
2026-04-26 15:16 55.61540 13.34990 3672 ft 244 kts 339°
2026-04-26 15:16 55.63203 13.33989 4424 ft 258 kts 338°
2026-04-26 15:16 55.64851 13.32896 5701 ft 250 kts 335°
2026-04-26 15:17 55.66426 13.31654 6917 ft 245 kts 332°
2026-04-26 15:17 55.67445 13.30764 7567 ft 248 kts 332°
2026-04-26 15:17 55.69544 13.28980 8875 ft 251 kts 334°
2026-04-26 15:17 55.71179 13.27874 9909 ft 253 kts 343°
2026-04-26 15:18 55.72881 13.27138 10857 ft 255 kts 343°
2026-04-26 15:18 55.74674 13.26348 11251 ft 276 kts 345°
2026-04-26 15:18 55.76626 13.25638 11653 ft 296 kts 347°
2026-04-26 15:18 55.78705 13.25037 12152 ft 309 kts 348°
2026-04-26 15:19 55.80815 13.24445 12902 ft 313 kts 347°
2026-04-26 15:19 55.82962 13.23721 13720 ft 315 kts 345°
2026-04-26 15:19 55.85112 13.22862 14508 ft 317 kts 343°
2026-04-26 15:19 55.87250 13.21925 15288 ft 318 kts 344°
2026-04-26 15:20 55.89428 13.21071 15946 ft 322 kts 344°
2026-04-26 15:20 55.91553 13.19810 16613 ft 323 kts 333°
2026-04-26 15:20 55.93459 13.17707 17303 ft 324 kts 320°
2026-04-26 15:20 55.95020 13.14804 18001 ft 327 kts 307°
2026-04-26 15:21 55.96319 13.11454 18678 ft 330 kts 305°
2026-04-26 15:21 55.97621 13.08053 19278 ft 334 kts 305°
2026-04-26 15:21 55.98934 13.04613 19906 ft 337 kts 305°
2026-04-26 15:21 56.00258 13.01151 20567 ft 340 kts 305°
2026-04-26 15:22 56.01597 12.97650 21205 ft 343 kts 305°
2026-04-26 15:22 56.02949 12.94118 21819 ft 346 kts 305°
2026-04-26 15:22 56.04316 12.90555 22425 ft 349 kts 305°
2026-04-26 15:22 56.05692 12.86956 23031 ft 352 kts 304°
2026-04-26 15:23 56.07079 12.83322 23611 ft 355 kts 304°
2026-04-26 15:23 56.08477 12.79652 24148 ft 358 kts 304°
2026-04-26 15:23 56.09884 12.75950 24633 ft 361 kts 304°
2026-04-26 15:23 56.11298 12.72214 25119 ft 363 kts 304°
2026-04-26 15:24 56.12719 12.68450 25592 ft 366 kts 304°
2026-04-26 15:24 56.14145 12.64667 26057 ft 368 kts 304°
2026-04-26 15:24 56.15720 12.61027 26249 ft 371 kts 312°
2026-04-26 15:24 56.17616 12.57885 26303 ft 371 kts 320°
2026-04-26 15:25 56.19788 12.55387 26304 ft 372 kts 330°
2026-04-26 15:25 56.21362 12.54135 26330 ft 373 kts 334°
2026-04-26 15:25 56.24566 12.51776 26304 ft 371 kts 334°
2026-04-26 15:25 56.26961 12.50037 26305 ft 371 kts 335°
2026-04-26 15:26 56.29357 12.48307 26304 ft 371 kts 335°
2026-04-26 15:26 56.31752 12.46574 26307 ft 371 kts 334°
2026-04-26 15:26 56.34140 12.44836 26297 ft 371 kts 334°
2026-04-26 15:26 56.36531 12.43086 26305 ft 371 kts 334°
2026-04-26 15:27 56.38921 12.41331 26303 ft 371 kts 334°
2026-04-26 15:27 56.41310 12.39576 26301 ft 371 kts 334°
2026-04-26 15:27 56.43700 12.37820 26306 ft 371 kts 334°
2026-04-26 15:27 56.46091 12.36064 26304 ft 371 kts 334°
2026-04-26 15:28 56.48481 12.34306 26294 ft 371 kts 334°
2026-04-26 15:28 56.50871 12.32545 26320 ft 371 kts 334°
2026-04-26 15:28 56.53260 12.30783 26310 ft 370 kts 334°
2026-04-26 15:28 56.55640 12.29021 26313 ft 370 kts 334°
2026-04-26 15:29 56.58023 12.27253 26311 ft 370 kts 334°
2026-04-26 15:29 56.60406 12.25482 26292 ft 370 kts 334°
2026-04-26 15:29 56.65179 12.21927 26283 ft 371 kts 334°
2026-04-26 15:30 56.69965 12.18364 26281 ft 372 kts 334°
2026-04-26 15:30 56.72328 12.16601 26279 ft 372 kts 334°
2026-04-26 15:30 56.74756 12.14783 26284 ft 372 kts 334°
2026-04-26 15:31 56.77147 12.12989 26282 ft 372 kts 334°
2026-04-26 15:31 56.81908 12.09411 26309 ft 372 kts 334°
2026-04-26 15:31 56.84299 12.07611 26249 ft 369 kts 334°
2026-04-26 15:32 56.88212 12.04663 25835 ft 358 kts 334°
2026-04-26 15:32 56.91237 12.02388 25293 ft 353 kts 334°
2026-04-26 15:32 56.93580 12.01004 24840 ft 356 kts 344°
2026-04-26 15:33 56.96031 12.00264 24374 ft 357 kts 347°
2026-04-26 15:33 56.98484 11.99571 23912 ft 356 kts 347°
2026-04-26 15:33 57.00931 11.98872 23396 ft 355 kts 347°
2026-04-26 15:33 57.03361 11.98179 22926 ft 352 kts 347°
2026-04-26 15:34 57.05810 11.97909 22460 ft 353 kts 355°
2026-04-26 15:34 57.08260 11.97896 21991 ft 351 kts 355°
2026-04-26 15:34 57.10688 11.97890 21484 ft 349 kts 355°
2026-04-26 15:34 57.13108 11.97879 20975 ft 347 kts 355°
2026-04-26 15:35 57.15512 11.97870 20470 ft 344 kts 355°
2026-04-26 15:35 57.17903 11.97864 19947 ft 343 kts 355°
2026-04-26 15:35 57.20280 11.97858 19436 ft 341 kts 355°
2026-04-26 15:35 57.22644 11.97849 18909 ft 339 kts 355°
2026-04-26 15:36 57.24996 11.97839 18359 ft 337 kts 355°
2026-04-26 15:36 57.27333 11.97830 17809 ft 334 kts 355°
2026-04-26 15:36 57.29646 11.97821 17289 ft 331 kts 355°
2026-04-26 15:36 57.31930 11.97812 16775 ft 327 kts 355°
2026-04-26 15:37 57.34197 11.97802 16268 ft 324 kts 355°
2026-04-26 15:37 57.36443 11.97790 15788 ft 322 kts 355°
2026-04-26 15:37 57.38678 11.97777 15269 ft 320 kts 355°
2026-04-26 15:37 57.40900 11.97764 14769 ft 318 kts 355°
2026-04-26 15:38 57.43107 11.97753 14270 ft 317 kts 355°
2026-04-26 15:38 57.45311 11.97740 13742 ft 315 kts 356°
2026-04-26 15:38 57.47494 11.97730 13244 ft 312 kts 356°
2026-04-26 15:38 57.49651 11.97723 12733 ft 309 kts 356°
2026-04-26 15:39 57.51822 11.97711 12063 ft 313 kts 356°
2026-04-26 15:39 57.53994 11.97743 11569 ft 311 kts
2026-04-26 15:39 57.56122 11.98502 11095 ft 313 kts 14°
2026-04-26 15:39 57.57455 11.99537 10777 ft 316 kts 22°
2026-04-26 15:40 57.60044 12.02081 10289 ft 309 kts 24°
2026-04-26 15:40 57.61901 12.03920 10159 ft 297 kts 23°
2026-04-26 15:40 57.63683 12.05687 10094 ft 284 kts 23°
2026-04-26 15:40 57.65397 12.07378 9876 ft 276 kts 23°
2026-04-26 15:41 57.67120 12.09062 9307 ft 282 kts 23°
2026-04-26 15:41 57.68828 12.10730 8821 ft 277 kts 24°
2026-04-26 15:41 57.70509 12.12378 8360 ft 269 kts 24°
2026-04-26 15:41 57.72172 12.14002 7901 ft 271 kts 24°
2026-04-26 15:42 57.73857 12.15644 7433 ft 274 kts 24°
2026-04-26 15:42 57.75554 12.17307 6957 ft 274 kts 24°
2026-04-26 15:42 57.77216 12.18945 6469 ft 266 kts 25°
2026-04-26 15:42 57.78833 12.20547 6003 ft 264 kts 25°
2026-04-26 15:43 57.80459 12.22160 5544 ft 262 kts 25°
2026-04-26 15:43 57.82044 12.23739 5105 ft 254 kts 25°
2026-04-26 15:43 57.85022 12.26700 4929 ft 236 kts 24°
2026-04-26 15:44 57.86468 12.28127 4848 ft 233 kts 25°
2026-04-26 15:44 57.88771 12.32135 4424 ft 237 kts 75°
2026-04-26 15:44 57.88644 12.35234 4231 ft 243 kts 107°
2026-04-26 15:45 57.86768 12.40359 3860 ft 240 kts 144°
2026-04-26 15:45 57.85328 12.41875 3651 ft 237 kts 162°
2026-04-26 15:46 57.82161 12.42250 3232 ft 224 kts 198°
2026-04-26 15:46 57.80738 12.41212 3064 ft 215 kts 211°
2026-04-26 15:46 57.79416 12.39997 2903 ft 208 kts 211°
2026-04-26 15:46 57.78980 12.39596 2845 ft 206 kts 210°
2026-04-26 15:47 57.76943 12.37728 2640 ft 189 kts 210°
2026-04-26 15:47 57.74692 12.35668 2152 ft 167 kts 212°
2026-04-26 15:47 57.73692 12.34752 1929 ft 155 kts 212°
2026-04-26 15:48 57.72738 12.33879 1716 ft 148 kts 212°
2026-04-26 15:48 57.71862 12.33081 1503 ft 136 kts 214°
2026-04-26 15:48 57.71028 12.32316 1315 ft 132 kts 213°
2026-04-26 15:48 57.70202 12.31561 1129 ft 133 kts 211°
2026-04-26 15:49 57.69377 12.30807 947 ft 130 kts 211°
2026-04-26 15:49 57.68564 12.30064 770 ft 131 kts 212°
2026-04-26 15:49 57.67754 12.29312 599 ft 129 kts 212°
2026-04-26 15:49 57.66995 12.28603 514 ft 103 kts 204°
2026-04-26 15:50 57.66503 12.28177 511 ft 53 kts 205°
2026-04-26 15:50 57.66269 12.27967 510 ft 21 kts 205°
2026-04-26 15:50 57.66155 12.27944 508 ft 19 kts 152°
2026-04-26 15:50 57.66113 12.28114 509 ft 14 kts 90°
2026-04-26 15:51 57.66182 12.28235 510 ft 15 kts 25°
2026-04-26 15:51 57.66289 12.28332 511 ft 19 kts 26°
2026-04-26 15:51 57.66416 12.28447 511 ft 22 kts 26°
2026-04-26 15:51 57.66565 12.28579 512 ft 25 kts 27°
2026-04-26 15:52 57.66700 12.28703 512 ft 23 kts 25°
2026-04-26 15:52 57.66816 12.28813 513 ft 9 kts 30°
2026-04-26 15:52 57.66828 12.28888 514 ft 5 kts 118°
2026-04-26 15:52 57.66819 12.28923 516 ft 4 kts 114°
2026-04-26 15:53 57.66786 12.29058 516 ft 13 kts 117°
2026-04-26 15:53 57.66786 12.29173 516 ft 10 kts 41°
2026-04-26 15:53 57.66855 12.29241 516 ft 7 kts 26°
2026-04-26 15:53 57.66904 12.29286 516 ft 4 kts 27°
2026-04-26 15:54 57.66905 12.29347 516 ft 7 kts 108°
2026-04-26 15:54 57.66888 12.29417 516 ft 0 kts 115°
2026-04-26 15:54 57.66886 12.29426 516 ft 0 kts 115°